Date,TemperatureHighF,TemperatureAvgF,TemperatureLowF,DewpointHighF,DewpointAvgF,DewpointLowF,HumidityHigh,HumidityAvg,HumidityLow,PressureMaxIn,PressureMinIn,WindSpeedMaxMPH,WindSpeedAvgMPH,GustSpeedMaxMPH,PrecipitationSumIn
2013-2-1,49.4,32.5,17.6,22.8,12.0,1.1,65,44,25,30.39,30.09,7,2,10,0.00
2013-2-2,61.5,37.1,21.5,29.3,20.0,15.7,83,55,23,30.27,30.09,6,1,9,0.00
2013-2-3,60.9,39.5,20.3,31.2,18.3,-17.4,87,50,4,30.27,29.88,6,1,8,0.00
2013-2-4,67.6,50.1,35.3,41.1,30.1,20.8,84,48,36,29.91,29.74,6,1,10,0.00
2013-2-5,54.4,43.0,32.9,46.9,39.4,29.0,96,87,72,30.00,29.85,3,0,5,0.00
2013-2-6,50.8,46.2,40.4,49.9,45.2,39.2,98,96,92,29.97,29.80,7,2,11,0.00
2013-2-7,63.0,48.5,35.6,54.6,44.8,32.3,98,88,50,30.12,29.77,10,2,14,0.50
2013-2-8,56.3,38.0,25.5,34.0,25.8,19.1,98,67,27,30.24,30.09,5,1,6,0.00
2013-2-9,42.2,37.1,27.8,41.7,33.2,23.3,98,86,71,30.09,29.68,8,4,13,0.00
2013-2-10,59.9,45.5,31.2,47.6,27.6,-18.6,98,59,4,30.00,29.62,6,2,10,0.54
2013-2-11,56.3,38.9,23.8,25.4,19.5,-15.1,83,52,8,30.18,30.00,6,1,8,0.54
2013-2-12,36.8,34.2,30.6,35.4,30.9,21.1,95,88,63,30.03,29.85,5,1,7,0.54
2013-2-13,56.0,37.7,25.1,32.5,26.2,17.3,95,68,26,30.06,29.77,5,1,7,0.54
2013-2-14,64.4,40.5,21.5,33.7,19.0,-26.9,92,54,3,30.15,29.91,4,1,7,0.00
2013-2-15,46.6,36.0,22.2,26.7,14.4,-13.1,63,43,13,30.36,30.15,6,2,8,0.00
2013-2-16,52.1,40.5,21.1,26.1,4.9,-17.3,86,34,5,30.39,30.00,6,1,8,0.00
2013-2-17,65.8,46.4,27.8,28.9,14.8,-27.3,75,39,2,30.06,29.77,9,3,15,0.00
2013-2-18,62.7,48.7,31.8,43.2,29.8,14.7,77,50,28,30.09,29.62,10,4,15,0.00
2013-2-19,57.5,38.4,22.2,26.1,8.3,-19.5,80,41,4,30.30,30.06,6,1,10,0.00
2013-2-20,39.9,32.7,29.3,31.7,26.7,15.2,96,80,37,30.21,29.83,7,3,13,1.08
2013-2-21,52.9,36.2,26.4,35.3,26.9,17.0,97,71,40,29.94,29.59,10,3,16,0.50
2013-2-22,45.9,35.3,18.3,19.0,14.3,8.8,73,44,30,30.12,29.91,5,2,7,0.00
2013-2-23,51.2,31.6,18.0,21.6,16.0,12.0,81,56,26,30.09,29.85,4,0,6,0.00
2013-2-24,59.8,41.4,22.0,31.4,25.3,15.9,88,56,33,29.88,29.62,10,3,16,0.00
2013-2-25,42.7,37.3,30.6,38.0,31.5,25.1,95,81,50,29.65,29.38,6,2,10,0.46
2013-2-26,52.0,36.7,25.1,28.0,23.4,16.5,89,62,31,29.88,29.56,6,2,12,0.04
2013-2-27,50.8,35.2,24.8,24.7,19.6,13.3,86,57,26,30.18,29.85,6,1,10,0.00
2013-2-28,62.6,41.2,25.1,33.7,23.4,16.1,84,53,21,30.24,30.12,6,1,11,0.00